SCP
0 0 0 0 0 0 0 0 0 0 0 0 0 0 0 0 0 0 0 0 0 0 0 0 0 0 0 0 0 0 1 1 1 1 1 1 1 1 1 1 1 1 1
0 0 0 0 0 0 0 0 0 0 0 0 0 0 0 0 0 0 0 0 0 0 0 0 0 0 0 0 0 0 0 1 1 1 1 1 1 1 1 1 1 1 1
0 0 0 0 0 0 0 0 0 0 0 0 0 0 0 0 0 0 0 0 0 0 0 0 0 0 0 0 0 0 0 0 1 1 1 1 1 1 1 1 1 1 1
0 0 0 0 0 0 0 0 0 0 0 0 0 0 0 0 0 0 0 0 0 0 0 0 0 0 0 0 0 0 0 0 0 1 1 1 1 1 1 1 1 1 1
0 0 0 0 1 1 0 1 1 1 0 0 0 0 0 0 0 0 0 0 0 0 0 0 0 0 0 0 0 0 0 0 0 0 0 1 1 1 1 1 1 1 1
1 1 1 1 1 1 1 1 1 1 0 0 0 0 0 0 0 0 0 0 0 0 0 0 0 0 0 -0 -0 0 -0 0 0 0 0 0 1 1 1 1 1 1 1
1 1 1 1 1 1 1 1 1 0 0 0 0 0 0 0 0 0 0 0 0 0 0 0 0 0 0 0 0 0 0 0 0 0 0 0 0 1 1 1 1 1 1
1 1 1 1 1 1 1 1 1 0 0 0 0 0 0 0 0 0 0 0 0 0 0 0 0 0 0 0 0 0 0 0 0 0 0 0 0 0 0 1 1 1 1
1 1 1 1 1 1 1 1 1 1 0 0 0 0 0 0 0 0 0 0 0 0 0 0 0 0 0 0 0 0 0 0 0 0 0 0 0 0 0 0 1 1 2
0 0 0 1 1 1 1 1 1 1 1 0 0 0 0 0 0 0 0 0 0 0 0 0 0 0 0 0 0 0 0 0 0 0 0 0 0 0 0 0 1 1 2
0 0 0 0 1 1 1 1 1 1 1 0 0 0 0 0 0 0 0 0 0 0 0 0 0 0 0 0 0 0 0 0 0 0 0 0 0 0 0 0 1 1 2
0 0 0 0 0 0 0 0 0 0 0 0 0 0 0 0 0 0 0 0 0 0 0 0 0 0 0 0 0 0 0 0 0 0 0 0 0 0 0 0 1 1 2
0 0 0 0 0 0 0 0 0 0 0 0 0 0 0 0 0 0 0 0 0 0 0 0 0 0 0 0 0 0 0 0 0 0 0 0 0 0 0 0 1 2 3
0 0 0 0 0 0 0 0 0 0 0 0 0 0 0 0 0 0 0 0 0 0 0 0 0 0 0 0 0 0 0 0 0 0 0 0 0 0 0 0 1 1 2
0 0 0 0 0 0 0 0 0 0 0 0 0 0 0 0 0 0 0 0 0 0 0 0 0 0 0 0 0 0 0 0 0 0 0 0 0 0 0 0 1 1 2
0 0 0 0 0 0 0 0 0 0 0 0 0 0 0 0 0 0 0 0 0 0 0 0 0 0 0 0 0 0 0 0 0 0 0 0 0 0 0 0 1 2 2
0 0 0 0 0 0 0 0 0 0 0 0 0 0 0 0 0 0 0 0 0 0 0 0 0 0 0 0 0 0 0 0 0 0 0 0 0 0 0 0 1 1 1
0 0 0 0 0 0 0 0 0 0 0 0 0 0 0 0 0 0 0 0 0 0 -0 -0 -0 0 0 0 0 0 0 0 0 0 0 0 0 0 0 0 0 0 0
0 0 0 0 0 0 0 0 0 0 0 0 0 0 0 0 0 0 0 0 0 0 -0 -0 -0 -0 0 0 0 0 0 0 0 0 0 0 0 0 0 0 0 0 0
0 0 0 0 0 0 0 0 0 0 0 0 0 0 0 0 0 0 0 0 0 0 0 0 0 0 0 0 0 0 0 0 0 0 0 0 0 0 0 0 0 0 0
0 0 0 0 0 0 0 0 0 0 0 0 0 0 -0 -0 0 0 0 0 0 0 0 0 0 0 0 0 0 0 0 0 0 0 0 0 0 0 0 0 0 0 0
0 0 0 0 0 0 0 0 0 0 0 0 -0 -0 -0 -0 -0 -0 -0 -0 0 0 0 0 0 0 0 0 0 0 0 0 0 0 0 0 0 0 0 0 0 0 0
0 0 0 0 0 0 0 0 0 0 0 0 -0 -0 -0 -0 -0 -0 0 0 0 0 0 0 -0 0 0 0 0 0 0 0 0 0 0 0 0 0 0 0 0 0 0
0 0 0 0 0 0 0 0 0 0 0 -0 -0 -0 -0 -0 -0 -0 0 0 0 0 0 0 0 0 0 0 0 0 0 0 0 0 0 0 0 0 0 0 0 0 0
0 0 0 0 0 0 0 0 0 0 -0 -0 -0 -0 -0 -0 -0 0 0 0 0 0 0 0 0 0 0 0 0 0 0 0 0 0 0 0 0 0 0 0 0 0 0
0 0 0 0 0 0 0 0 0 0 0 0 -0 -0 -0 -0 -0 0 0 0 0 0 0 0 0 0 0 0 0 0 0 0 0 0 0 0 0 0 0 0 0 0 0
Wind_Speed
4 3 2 2 3 2 3 2 3 4 5 6 6 7 8 8 7 6 5 2 2 7 10 12 11 10 10 10 9 10 10 11 12 13 13 13 16 17 18 19 19 20 20
3 3 2 1 1 3 4 4 4 5 6 7 8 8 9 10 9 9 8 6 6 8 9 11 12 11 11 10 10 9 9 10 11 12 13 14 14 16 17 18 19 19 20
3 0 1 0 1 2 3 4 5 6 7 8 10 10 10 11 11 11 11 9 7 10 12 11 11 11 11 11 10 11 11 11 11 11 12 12 14 14 16 17 17 18 19
2 1 1 1 2 4 5 6 7 8 9 10 10 11 11 12 14 13 12 11 9 8 10 14 12 11 11 10 9 11 13 13 13 12 13 13 12 13 15 16 17 18 18
4 3 3 3 5 6 6 6 7 8 9 11 12 12 12 13 14 14 14 13 13 12 10 9 13 12 13 11 9 11 12 14 15 15 14 14 13 13 12 14 17 17 18
5 4 4 4 5 6 6 6 7 8 9 10 11 12 13 12 11 11 12 12 12 12 12 12 9 10 14 16 12 11 12 13 14 16 16 16 15 14 14 12 14 17 19
2 4 5 3 4 5 5 6 7 9 9 9 10 13 13 13 13 11 10 10 10 11 12 13 11 10 8 12 16 15 11 14 16 16 17 18 17 16 17 16 14 14 17
5 4 5 5 5 6 6 6 7 9 10 11 11 14 15 16 13 11 10 8 11 11 13 14 13 13 11 11 10 8 11 16 18 17 17 17 18 19 19 19 18 16 15
5 5 6 7 7 8 8 8 9 12 13 13 12 13 16 16 14 14 13 12 12 12 13 13 13 15 15 13 12 13 15 13 16 18 19 18 19 20 21 22 22 20 18
6 7 7 8 9 9 10 10 11 12 14 14 13 13 15 16 15 17 15 14 13 13 13 12 13 13 14 13 15 15 15 13 14 17 20 21 21 21 22 23 24 23 21
8 9 9 10 11 11 12 13 14 14 13 15 15 14 14 14 16 17 17 16 14 12 11 11 11 11 12 13 13 15 11 5 9 15 19 22 24 24 23 23 25 25 24
10 11 12 12 13 13 13 14 15 16 15 16 15 15 15 16 15 16 17 18 16 14 12 11 11 11 11 12 14 11 4 4 8 14 20 23 25 26 24 23 24 26 25
11 12 13 13 13 14 15 15 15 16 17 17 17 14 14 15 15 14 17 18 19 15 14 12 11 10 11 8 8 4 4 5 8 13 19 23 25 27 27 24 22 23 22
11 14 14 14 16 17 16 16 15 15 15 15 16 15 15 14 13 10 11 15 18 15 13 15 8 9 7 5 4 1 2 6 7 11 16 20 22 26 28 24 20 18 18
11 13 15 16 16 16 15 13 11 13 13 13 12 14 13 11 11 10 9 11 12 12 13 17 12 7 5 4 1 2 4 7 8 11 18 22 23 21 23 23 19 17 19
13 14 14 14 14 13 12 11 10 11 12 11 9 11 11 9 8 8 9 9 10 11 13 14 11 8 6 5 2 6 5 6 7 11 20 25 24 18 14 17 14 17 20
12 12 11 11 12 12 12 11 10 11 11 11 11 11 12 12 9 8 9 9 9 9 11 11 10 8 7 3 3 6 5 3 5 13 20 25 27 27 11 14 19 23 19
12 11 12 11 11 10 10 11 9 11 12 13 13 12 13 11 10 10 9 9 9 9 9 10 8 8 7 3 4 7 6 4 5 14 20 27 32 32 20 23 20 18 16
10 12 12 13 13 12 10 9 9 11 11 12 12 12 12 12 11 10 10 9 9 8 7 8 8 5 2 3 6 7 7 5 7 11 16 24 32 34 28 26 29 25 23
11 13 13 12 12 12 10 11 12 14 14 14 14 9 11 12 12 13 11 10 9 9 8 8 7 4 2 4 6 7 7 6 7 8 13 17 24 26 28 26 29 29 29
11 12 12 12 12 10 10 14 15 16 16 14 11 8 11 15 20 17 14 10 9 8 8 7 6 5 4 7 6 5 9 7 8 8 8 11 13 13 17 20 23 27 29
11 11 11 12 11 8 15 20 18 17 16 15 10 9 12 15 17 21 23 21 17 12 9 8 7 5 7 8 8 7 9 5 5 5 7 11 12 12 12 14 24 28 28
12 12 12 12 12 10 14 19 23 17 14 12 10 10 10 11 16 15 19 21 18 17 13 8 7 7 9 10 11 8 7 8 7 5 7 12 11 12 12 15 25 27 27
11 11 11 10 9 9 14 19 24 16 11 10 8 10 11 12 14 17 15 11 9 8 9 7 4 7 9 11 11 12 13 13 11 7 6 12 12 13 13 16 25 26 27
11 12 12 11 12 11 14 19 20 13 12 11 8 10 12 13 17 20 13 9 2 5 7 9 12 14 16 19 18 14 12 13 11 8 7 11 13 14 14 14 17 24 26
10 11 11 11 12 13 14 18 20 12 12 11 9 10 15 18 18 17 12 10 7 5 10 13 16 17 16 17 17 13 12 12 13 9 7 10 13 11 12 10 10 12 16
Wind_Direction
109 119 91 61 59 59 63 16 4 331 314 313 313 311 309 312 312 308 306 293 266 284 290 284 279 285 294 299 304 308 315 311 299 285 270 254 243 239 236 237 235 232 230
105 121 153 138 54 15 2 334 329 310 304 300 297 301 301 301 301 296 291 287 224 229 263 277 282 290 293 296 299 307 313 317 313 306 288 263 251 242 238 236 234 230 228
102 130 117 217 21 335 297 294 291 290 292 297 297 296 293 295 296 295 294 294 272 221 223 237 256 272 283 287 294 301 309 314 318 321 312 292 264 252 244 235 231 227 226
104 227 181 235 291 280 286 290 292 295 293 292 293 294 295 295 290 285 279 280 286 280 229 215 222 247 260 264 283 296 303 307 311 314 316 314 303 278 257 242 232 226 223
177 227 237 242 251 269 274 280 286 296 297 293 291 290 291 291 289 286 287 286 283 277 272 225 205 223 239 243 261 280 292 299 303 306 307 309 307 305 285 254 239 232 226
196 232 250 252 266 278 289 309 311 299 293 291 293 292 288 283 284 284 282 277 271 267 265 261 246 233 219 222 233 253 272 284 293 297 300 300 302 302 299 287 258 237 230
253 280 289 280 287 303 318 308 300 299 297 300 297 293 291 288 275 269 274 272 279 274 264 269 269 266 253 226 218 230 257 280 282 284 291 296 298 300 299 293 282 252 234
338 324 339 328 342 320 301 297 305 299 295 296 297 300 295 291 284 280 280 273 264 272 270 268 266 278 284 281 266 270 279 274 275 277 283 289 293 294 293 291 285 274 242
340 353 348 338 331 312 310 315 300 297 296 297 290 287 294 292 303 293 285 276 276 273 271 270 272 278 279 271 270 268 259 263 269 278 282 284 285 286 287 284 280 275 259
345 343 340 335 325 315 306 298 297 299 290 288 289 283 281 287 287 288 280 276 272 270 269 270 270 271 279 278 275 274 278 268 269 282 285 285 284 282 281 280 276 271 264
331 330 329 326 315 304 301 297 293 289 287 286 287 289 286 279 273 275 280 277 271 269 270 274 283 284 283 280 277 273 273 246 275 285 288 288 285 281 276 273 273 270 265
323 323 327 319 309 303 301 300 296 291 288 287 286 286 283 280 280 278 278 277 275 271 271 265 262 267 271 273 273 277 325 308 308 306 296 290 286 280 272 265 265 266 262
323 326 325 313 308 306 302 297 293 288 283 279 279 280 280 278 282 285 286 286 286 287 285 277 267 259 262 267 271 318 315 11 347 322 308 297 288 281 272 259 255 260 258
319 316 310 307 304 299 294 290 286 285 288 289 288 283 279 281 283 278 277 280 284 287 286 277 269 263 267 271 294 315 30 43 10 347 331 315 303 287 267 251 242 244 241
310 310 309 304 301 299 297 297 297 297 297 292 287 286 286 283 280 279 270 263 266 271 274 279 281 272 279 300 321 333 77 65 35 13 5 349 325 301 256 234 228 229 206
313 313 312 315 317 318 317 308 297 290 283 281 283 286 287 285 281 275 268 261 254 257 265 271 279 272 259 230 162 110 110 86 52 29 24 8 351 335 259 215 218 166 142
323 329 329 320 316 311 305 298 294 299 303 299 294 290 287 285 279 272 265 259 256 251 258 259 262 274 289 282 109 103 85 63 37 33 34 23 14 10 3 165 138 125 135
331 320 308 327 328 314 311 310 309 307 304 298 296 292 284 281 274 269 263 260 258 253 253 260 265 275 268 200 145 113 88 49 31 38 39 37 26 20 34 82 97 99 105
308 306 320 320 312 308 301 300 302 298 289 284 284 290 298 292 280 275 267 256 251 250 248 250 252 252 214 152 127 106 78 45 21 34 40 43 39 24 28 56 69 71 78
307 313 314 314 317 318 331 331 310 291 287 288 289 288 291 293 283 278 276 266 249 236 233 238 237 225 171 141 137 119 95 62 41 29 37 45 46 32 30 42 61 66 71
322 322 330 336 339 342 3 341 323 312 308 302 302 311 294 293 295 298 296 284 264 235 220 219 220 204 166 154 141 127 112 98 54 28 44 46 47 37 23 34 51 61 70
350 347 348 345 341 352 4 342 331 316 306 308 314 318 309 305 306 305 300 289 274 250 219 208 214 191 160 148 132 143 131 121 79 29 59 58 56 56 41 41 56 63 70
354 349 349 354 346 6 5 343 331 312 301 303 329 329 314 316 312 307 300 286 267 247 224 211 213 172 159 147 136 133 107 94 98 93 80 73 64 69 60 57 63 69 74
351 349 353 357 350 21 14 353 334 319 319 337 355 331 324 321 319 321 309 288 247 217 202 201 201 159 145 138 125 114 107 102 94 90 84 88 81 76 71 64 63 66 69
356 355 355 1 359 4 11 356 342 334 346 341 346 341 337 328 328 332 332 329 249 155 130 109 97 107 119 123 122 118 118 116 106 93 92 103 100 91 78 72 68 70 72
358 354 358 11 7 356 1 355 346 342 345 333 344 347 340 333 332 345 356 1 25 92 107 93 91 93 102 110 112 116 126 122 123 118 122 114 112 102 89 86 87 84 80